Weather History for Anchorage Merrill, AK

Change the Weather History Date:

Friday, October 4, 2013

  Actual Average Record
Temperature  
Mean Temperature 46 °F -  
Max Temperature 55 °F 46 °F 57 °F (2012)
Min Temperature 36 °F 32 °F 28 °F (1993)
Degree Days  
Heating Degree Days 20    
Moisture  
Dew Point 34 °F    
Average Humidity 69    
Maximum Humidity 86    
Minimum Humidity 45    
Precipitation  
Precipitation 0.00 in - - ()
Sea Level Pressure  
Sea Level Pressure 29.62 in    
Wind  
Wind Speed 1 mph (NW)    
Max Wind Speed 6 mph    
Max Gust Speed -    
Visibility 10 miles    
Events      
Averages and records for this station are not official NWS values.
T = Trace of Precipitation, MM = Missing Value Source: NWS Daily Summary

Daily Weather History Graph

Daily Weather History Graph

Search for Another Location

Airport:

Trip Planner

Search our weather history database for the weather conditions in past years. The results will help you decide how hot, cold, wet, or windy it might be!

Date:

Astronomy

Oct. 04, 2013 Rise Set
Actual Time 8:14 AM AKDT 7:19 PM AKDT
Civil Twilight 7:31 AM AKDT 8:02 PM AKDT
Nautical Twilight 6:41 AM AKDT 8:53 PM AKDT
Astronomical Twilight 5:48 AM AKDT 9:45 PM AKDT
Moon 8:07 AM AKDT (10/4) 6:54 PM AKDT (10/4)
Length of Visible Light 12h 31m
Length of Day
11h 05m
Waning Crescent, 0% of the Moon is Illuminated
Oct 4
Waning Crescent
Oct 4
New
Oct 11
First Quarter
Oct 18
Full
Oct 26
Last Quarter

Hourly Weather History & Observations

Time (AKDT) Temp. Windchill Dew Point Humidity Pressure Visibility Wind Dir Wind Speed Gust Speed Precip Events Conditions
12:53 AM 41.0 °F - 36.0 °F 82% 29.48 in 10.0 mi Calm Calm - N/A   Mostly Cloudy
1:53 AM 39.9 °F - 34.0 °F 79% 29.49 in 10.0 mi Calm Calm - N/A   Scattered Clouds
2:53 AM 39.0 °F - 34.0 °F 82% 29.50 in 10.0 mi Calm Calm - N/A   Scattered Clouds
3:53 AM 37.9 °F - 33.1 °F 83% 29.51 in 10.0 mi Calm Calm - N/A   Scattered Clouds
4:53 AM 36.0 °F - 32.0 °F 86% 29.52 in 10.0 mi Calm Calm - N/A   Scattered Clouds
5:53 AM 37.9 °F - 33.1 °F 83% 29.54 in 10.0 mi Calm Calm - N/A   Scattered Clouds
6:53 AM 37.0 °F - 32.0 °F 82% 29.55 in 10.0 mi Calm Calm - N/A   Overcast
7:53 AM 36.0 °F 33.3 °F 32.0 °F 86% 29.57 in 10.0 mi East 3.5 mph - N/A   Scattered Clouds
8:53 AM 37.9 °F - 33.1 °F 83% 29.58 in 10.0 mi Calm Calm - N/A   Mostly Cloudy
9:53 AM 42.1 °F - 35.1 °F 76% 29.60 in 10.0 mi Calm Calm - N/A   Overcast
10:53 AM 43.0 °F - 36.0 °F 76% 29.62 in 10.0 mi Calm Calm - N/A   Scattered Clouds
11:53 AM 46.9 °F - 39.0 °F 74% 29.63 in 10.0 mi Calm Calm - N/A   Scattered Clouds
12:53 PM 51.1 °F - 36.0 °F 56% 29.64 in 10.0 mi Calm Calm - N/A   Clear
1:53 PM 54.0 °F - 36.0 °F 51% 29.65 in 10.0 mi NNW 3.5 mph - N/A   Clear
2:53 PM 55.0 °F - 36.0 °F 49% 29.65 in 10.0 mi West 4.6 mph - N/A   Partly Cloudy
3:53 PM 53.1 °F - 34.0 °F 48% 29.66 in 10.0 mi NW 5.8 mph - N/A   Clear
4:53 PM 53.1 °F - 32.0 °F 45% 29.67 in 10.0 mi Calm Calm - N/A   Partly Cloudy
5:53 PM 52.0 °F - 34.0 °F 50% 29.68 in 10.0 mi Calm Calm - N/A   Clear
6:53 PM 50.0 °F - 36.0 °F 59% 29.69 in 10.0 mi NW 4.6 mph - N/A   Clear
7:53 PM 46.9 °F - 33.1 °F 59% 29.70 in 10.0 mi Calm Calm - N/A   Scattered Clouds
8:53 PM 45.0 °F - 34.0 °F 65% 29.71 in 10.0 mi Calm Calm - N/A   Overcast
9:53 PM 44.1 °F - 34.0 °F 68% 29.73 in 10.0 mi Calm Calm - N/A   Mostly Cloudy
10:53 PM 42.1 °F - 32.0 °F 67% 29.73 in 10.0 mi Calm Calm - N/A   Scattered Clouds
11:53 PM 41.0 °F - 32.0 °F 70% 29.75 in 10.0 mi Calm Calm - N/A   Scattered Clouds